TimeEST,TemperatureF,Dew PointF,Humidity,Sea Level PressureIn,VisibilityMPH,Wind Direction,Wind SpeedMPH,Gust SpeedMPH,PrecipitationIn,Events,Conditions,WindDirDegrees,DateUTC
12:39 AM,32.0,28.4,87,30.12,10.0,Calm,Calm,-,N/A,,Clear,0,2013-01-21 05:39:00
12:57 AM,32.0,30.2,93,30.12,10.0,Calm,Calm,-,N/A,,Clear,0,2013-01-21 05:57:00
1:17 AM,30.2,28.4,93,30.12,10.0,Calm,Calm,-,N/A,,Clear,0,2013-01-21 06:17:00
1:57 AM,28.4,28.4,100,30.13,10.0,Calm,Calm,-,N/A,,Clear,0,2013-01-21 06:57:00
2:17 AM,28.4,28.4,100,30.13,10.0,Calm,Calm,-,N/A,,Clear,0,2013-01-21 07:17:00
2:37 AM,28.4,26.6,93,30.13,10.0,Calm,Calm,-,N/A,,Clear,0,2013-01-21 07:37:00
3:57 AM,32.0,30.2,93,30.12,10.0,Calm,Calm,-,N/A,,Clear,0,2013-01-21 08:57:00
4:17 AM,33.8,30.2,87,30.11,10.0,Calm,Calm,-,N/A,,Clear,0,2013-01-21 09:17:00
4:38 AM,33.8,28.4,81,30.11,10.0,Calm,Calm,-,N/A,,Clear,0,2013-01-21 09:38:00
5:18 AM,30.2,26.6,86,30.11,10.0,North,3.5,-,N/A,,Clear,10,2013-01-21 10:18:00
5:37 AM,26.6,24.8,93,30.11,10.0,Calm,Calm,-,N/A,,Clear,0,2013-01-21 10:37:00
5:59 AM,26.6,26.6,100,30.11,10.0,Calm,Calm,-,N/A,,Clear,0,2013-01-21 10:59:00
8:38 AM,35.6,33.8,93,30.12,10.0,Calm,Calm,-,N/A,,Clear,0,2013-01-21 13:38:00
8:58 AM,42.8,30.2,61,30.12,10.0,Calm,Calm,-,N/A,,Clear,0,2013-01-21 13:58:00
9:18 AM,44.6,30.2,57,30.11,10.0,SSE,3.5,-,N/A,,Clear,160,2013-01-21 14:18:00
10:17 AM,46.4,32.0,57,30.11,10.0,SSE,6.9,-,N/A,,Clear,160,2013-01-21 15:17:00
10:40 AM,48.2,32.0,54,30.10,10.0,SE,5.8,-,N/A,,Clear,140,2013-01-21 15:40:00
10:58 AM,51.8,33.8,50,30.10,10.0,South,5.8,-,N/A,,Clear,170,2013-01-21 15:58:00
11:17 AM,51.8,32.0,47,30.09,10.0,South,9.2,-,N/A,,Clear,180,2013-01-21 16:17:00
11:37 AM,51.8,30.2,44,30.07,10.0,South,5.8,-,N/A,,Clear,170,2013-01-21 16:37:00
11:57 AM,51.8,30.2,44,30.05,10.0,South,9.2,-,N/A,,Clear,170,2013-01-21 16:57:00
12:57 PM,55.4,30.2,38,30.01,10.0,South,3.5,-,N/A,,Clear,190,2013-01-21 17:57:00
1:20 PM,55.4,30.2,38,29.99,10.0,South,6.9,-,N/A,,Clear,190,2013-01-21 18:20:00
2:17 PM,57.2,30.2,36,29.95,10.0,South,11.5,-,N/A,,Clear,180,2013-01-21 19:17:00
2:37 PM,57.2,30.2,36,29.93,10.0,South,11.5,21.9,N/A,,Clear,190,2013-01-21 19:37:00
3:00 PM,57.2,32.0,38,29.92,10.0,SSW,6.9,-,N/A,,Clear,200,2013-01-21 20:00:00
3:17 PM,57.2,30.2,36,29.92,10.0,SSW,15.0,-,N/A,,Clear,200,2013-01-21 20:17:00
4:39 PM,55.4,28.4,36,29.89,10.0,SSW,11.5,-,N/A,,Clear,210,2013-01-21 21:39:00
5:17 PM,51.8,28.4,41,29.88,10.0,SSW,6.9,-,N/A,,Clear,200,2013-01-21 22:17:00
5:59 PM,46.4,28.4,50,29.88,10.0,SSW,4.6,-,N/A,,Clear,200,2013-01-21 22:59:00
6:18 PM,44.6,28.4,53,29.88,10.0,SSW,3.5,-,N/A,,Clear,200,2013-01-21 23:18:00
6:38 PM,42.8,30.2,61,29.88,10.0,SSW,4.6,-,N/A,,Clear,210,2013-01-21 23:38:00
6:57 PM,41.0,28.4,61,29.89,10.0,SW,4.6,-,N/A,,Clear,230,2013-01-21 23:57:00
8:00 PM,46.4,26.6,46,29.92,10.0,WNW,8.1,-,N/A,,Clear,290,2013-01-22 01:00:00
8:17 PM,46.4,24.8,43,29.92,10.0,West,8.1,-,N/A,,Clear,280,2013-01-22 01:17:00
9:37 PM,44.6,17.6,34,29.95,10.0,West,9.2,-,N/A,,Clear,280,2013-01-22 02:37:00
9:59 PM,42.8,17.6,36,29.95,10.0,North,-9999.0,-,N/A,,Clear,0,2013-01-22 02:59:00
10:37 PM,42.8,17.6,36,29.96,10.0,West,10.4,17.3,N/A,,Clear,270,2013-01-22 03:37:00
11:59 PM,39.2,15.8,39,29.98,10.0,West,9.2,-,N/A,,Clear,280,2013-01-22 04:59:00